Regional Weather Roundup
Issued by NWS

Home | Current Version | Previous Version | Text Only | Print | Product List | Glossary On
Versions: 1 2 3 4 5 6 7 8 9 10 11 12 13 14 15 16 17 18 19 20 21 22 23 24 25 26 27 28
000
ASUS45 KBOI 292210
RWRID

IDAHO REGIONAL WEATHER ROUNDUP
NATIONAL WEATHER SERVICE BOISE ID
400 PM MDT MON AUG 29 2016

NOTE: "FAIR" INDICATES FEW OR NO CLOUDS BELOW 12000 FEET
WITH NO SIGNIFICANT WEATHER AND/OR OBSTRUCTIONS TO VISIBILITY

IDZ012-014-292300-
SOUTHWEST IDAHO


CITY           SKY/WX    TMP DP  RH WIND       PRES   REMARKS
BOISE          SUNNY     90  43  19 NW6       30.04F
CALDWELL       SUNNY     90  47  22 N6        30.02F
MOUNTAIN HOME  MOSUNNY   96  36  12 VRB1      30.02F HX  91
$$

IDZ016-017-292300-
SOUTHCENTRAL IDAHO


CITY           SKY/WX    TMP DP  RH WIND       PRES   REMARKS
BURLEY         CLOUDY    87  37  17 NE5       30.11F
JEROME         CLOUDY    91  41  17 NW6       30.11F
TWIN FALLS     CLOUDY    89  45  21 E8        30.11F
$$

IDZ019>023-292300-
SOUTHEAST IDAHO


CITY           SKY/WX    TMP DP  RH WIND       PRES   REMARKS
IDAHO FALLS    SUNNY     88  26  10 W10       30.19F
POCATELLO      CLOUDY    92  29  10 N8        30.18F
REXBURG        CLOUDY    88  33  14 W10       30.19F
$$

IDZ006-010-011-018-031-032-292300-
CENTRAL IDAHO MOUNTAINS


CITY           SKY/WX    TMP DP  RH WIND       PRES   REMARKS
MCCALL         PTSUNNY   80  37  21 S12       30.19S
HAILEY         PTSUNNY   79  45  29 SE9       30.24F
STANLEY          N/A     80  18  10 VRB5G20   30.30S
SALMON         CLOUDY    90  37  15 N7        30.08F
CHALLIS        PTSUNNY   85  35  16 SE8       30.14F
$$

IDZ002-004-006-007-026-292300-
NORTHERN IDAHO


CITY           SKY/WX    TMP DP  RH WIND       PRES   REMARKS
LEWISTON       SUNNY     95  41  15 W13       29.90F HX  91
LOWELL           N/A     87  58  37 N5        29.87F
COEUR D`ALENE  SUNNY     90  46  22 N5        29.94F
MULLAN PASS    MOSUNNY   79  34  19 VRB5      30.21F
$$




USA.gov is the U.S. government's official web portal to all federal, state and local government web resources and services.